| time (UTC) | temp F | wind direction | speed MPH | gust MPH | rain 1hr in | rain 24hr in | rain mn in | humidity % | barometer mb |
| 20260901225021 | 83 | 0 | 0.0 | 1.0 | 0.00 | 0.21 | 0.21 | 87 | 1015.1 |
| 20260901224540 | 83 | 0 | 0.0 | 3.0 | 0.00 | 0.21 | 0.21 | 87 | 1015.1 |
| 20260901224020 | 83 | 52 | 0.0 | 4.0 | 0.00 | 0.21 | 0.21 | 87 | 1015.1 |
| 20260901223521 | 83 | 0 | 0.0 | 5.0 | 0.00 | 0.21 | 0.21 | 86 | 1015.0 |
| 20260901223037 | 83 | 343 | 1.0 | 7.0 | 0.00 | 0.21 | 0.21 | 85 | 1015.0 |
| 20260901222521 | 83 | 8 | 1.0 | 7.0 | 0.00 | 0.21 | 0.21 | 85 | 1014.9 |
| 20260901222019 | 84 | 335 | 1.0 | 6.0 | 0.00 | 0.21 | 0.21 | 85 | 1014.8 |
| 20260901221601 | 84 | 0 | 0.0 | 5.0 | 0.00 | 0.21 | 0.21 | 88 | 1014.7 |
| 20260901221020 | 84 | 0 | 0.0 | 5.0 | 0.00 | 0.21 | 0.21 | 88 | 1014.5 |
| 20260901220519 | 84 | 12 | 1.0 | 5.0 | 0.00 | 0.21 | 0.21 | 88 | 1014.5 |
| 20260901220042 | 84 | 356 | 1.0 | 6.0 | 0.00 | 0.21 | 0.21 | 88 | 1014.5 |
| 20260901215519 | 84 | 4 | 0.0 | 6.0 | 0.00 | 0.21 | 0.21 | 88 | 1014.4 |
| 20260901215022 | 84 | 0 | 1.0 | 5.0 | 0.00 | 0.21 | 0.21 | 87 | 1014.3 |
| 20260901214538 | 85 | 0 | 0.0 | 7.0 | 0.00 | 0.21 | 0.21 | 88 | 1014.2 |
| 20260901214025 | 85 | 0 | 1.0 | 7.0 | 0.00 | 0.21 | 0.21 | 87 | 1014.3 |
| 20260901213520 | 85 | 295 | 1.0 | 5.0 | 0.00 | 0.21 | 0.21 | 87 | 1014.4 |
| 20260901213039 | 85 | 41 | 1.0 | 5.0 | 0.00 | 0.21 | 0.21 | 86 | 1014.4 |
| 20260901212519 | 86 | 290 | 1.0 | 5.0 | 0.00 | 0.21 | 0.21 | 84 | 1014.5 |
| 20260901212024 | 86 | 313 | 1.0 | 5.0 | 0.00 | 0.21 | 0.21 | 84 | 1014.3 |
| 20260901211538 | 86 | 0 | 0.0 | 5.0 | 0.00 | 0.21 | 0.21 | 86 | 1014.3 |
| 20260901211022 | 86 | 341 | 1.0 | 5.0 | 0.00 | 0.21 | 0.21 | 84 | 1014.5 |
| 20260901210523 | 86 | 74 | 1.0 | 6.0 | 0.00 | 0.21 | 0.21 | 85 | 1014.4 |
| 20260901210040 | 86 | 341 | 1.0 | 8.0 | 0.00 | 0.21 | 0.21 | 84 | 1014.3 |
| 20260901205521 | 86 | 357 | 2.0 | 8.0 | 0.00 | 0.21 | 0.21 | 82 | 1014.4 |
| 20260901205019 | 87 | 342 | 2.0 | 7.0 | 0.00 | 0.21 | 0.21 | 81 | 1014.4 |
| 20260901204539 | 87 | 30 | 1.0 | 7.0 | 0.00 | 0.21 | 0.21 | 82 | 1014.4 |
| 20260901204019 | 87 | 75 | 1.0 | 7.0 | 0.00 | 0.21 | 0.21 | 81 | 1014.4 |
| 20260901203519 | 88 | 98 | 2.0 | 6.0 | 0.00 | 0.21 | 0.21 | 80 | 1014.6 |
| 20260901203049 | 88 | 60 | 0.0 | 6.0 | 0.00 | 0.21 | 0.21 | 79 | 1014.7 |
| 20260901202520 | 89 | 21 | 1.0 | 6.0 | 0.00 | 0.21 | 0.21 | 78 | 1014.7 |
| 20260901202030 | 90 | 320 | 1.0 | 6.0 | 0.00 | 0.21 | 0.21 | 77 | 1014.8 |
| 20260901201546 | 89 | 24 | 1.0 | 5.0 | 0.00 | 0.21 | 0.21 | 80 | 1014.7 |
| 20260901201021 | 88 | 0 | 1.0 | 6.0 | 0.00 | 0.21 | 0.21 | 82 | 1014.7 |
| 20260901200521 | 88 | 33 | 2.0 | 6.0 | 0.00 | 0.21 | 0.21 | 80 | 1014.8 |
| 20260901200040 | 87 | 0 | 0.0 | 4.0 | 0.00 | 0.21 | 0.21 | 81 | 1014.9 |
| 20260901195519 | 87 | 18 | 0.0 | 5.0 | 0.00 | 0.21 | 0.21 | 81 | 1014.9 |
| 20260901195022 | 87 | 0 | 2.0 | 5.0 | 0.00 | 0.21 | 0.21 | 80 | 1015.0 |
| 20260901194537 | 87 | 318 | 2.0 | 5.0 | 0.00 | 0.21 | 0.21 | 80 | 1015.0 |
| 20260901194023 | 87 | 0 | 0.0 | 5.0 | 0.00 | 0.21 | 0.21 | 80 | 1015.0 |
| 20260901193523 | 87 | 56 | 1.0 | 4.0 | 0.00 | 0.21 | 0.21 | 80 | 1014.9 |
| 20260901193038 | 87 | 60 | 0.0 | 4.0 | 0.00 | 0.21 | 0.21 | 82 | 1015.1 |
| 20260901192524 | 87 | 0 | 0.0 | 3.0 | 0.00 | 0.21 | 0.21 | 82 | 1015.2 |
| 20260901192028 | 88 | 0 | 0.0 | 5.0 | 0.00 | 0.21 | 0.21 | 82 | 1015.1 |
| 20260901191544 | 88 | 0 | 0.0 | 5.0 | 0.00 | 0.21 | 0.21 | 84 | 1015.1 |
| 20260901191019 | 88 | 46 | 0.0 | 5.0 | 0.00 | 0.21 | 0.21 | 80 | 1015.0 |
| 20260901190520 | 87 | 11 | 0.0 | 5.0 | 0.00 | 0.21 | 0.21 | 83 | 1015.1 |
| 20260901190044 | 87 | 29 | 1.0 | 4.0 | 0.00 | 0.21 | 0.21 | 82 | 1015.2 |
| 20260901185520 | 87 | 0 | 0.0 | 5.0 | 0.00 | 0.21 | 0.21 | 84 | 1015.2 |
| 20260901185020 | 87 | 0 | 0.0 | 5.0 | 0.00 | 0.21 | 0.21 | 87 | 1015.3 |
| 20260901184538 | 86 | 4 | 1.0 | 4.0 | 0.00 | 0.21 | 0.21 | 86 | 1015.4 |
| 20260901184019 | 85 | 0 | 0.0 | 1.0 | 0.00 | 0.21 | 0.21 | 89 | 1015.3 |
| 20260901183522 | 85 | 0 | 0.0 | 1.0 | 0.00 | 0.21 | 0.21 | 90 | 1015.3 |
| 20260901183039 | 85 | 0 | 0.0 | 1.0 | 0.00 | 0.21 | 0.21 | 93 | 1015.3 |
| 20260901182519 | 84 | 0 | 0.0 | 0.0 | 0.00 | 0.21 | 0.21 | 96 | 1015.4 |
| 20260901182024 | 84 | 0 | 0.0 | 0.0 | 0.00 | 0.21 | 0.21 | 96 | 1015.5 |
| 20260901181540 | 83 | 0 | 0.0 | 1.0 | 0.00 | 0.21 | 0.21 | 96 | 1015.5 |
| 20260901181020 | 83 | 0 | 0.0 | 1.0 | 0.00 | 0.21 | 0.21 | 98 | 1015.5 |
| 20260901180521 | 83 | 0 | 0.0 | 1.0 | 0.00 | 0.21 | 0.21 | 97 | 1015.6 |
| 20260901180037 | 83 | 0 | 0.0 | 1.0 | 0.00 | 0.21 | 0.21 | 98 | 1015.8 |
| 20260901175521 | 82 | 0 | 0.0 | 1.0 | 0.00 | 0.21 | 0.21 | 99 | 1015.9 |
| 20260901175020 | 82 | 0 | 0.0 | 0.0 | 0.00 | 0.21 | 0.21 | 98 | 1016.0 |
| 20260901174540 | 82 | 0 | 0.0 | 0.0 | 0.00 | 0.21 | 0.21 | 100 | 1016.1 |
| 20260901174024 | 82 | 0 | 0.0 | 0.0 | 0.00 | 0.21 | 0.21 | 100 | 1016.2 |
| 20260901173519 | 82 | 0 | 0.0 | 0.0 | 0.00 | 0.21 | 0.21 | 100 | 1016.2 |
| 20260901173036 | 81 | 0 | 0.0 | 2.0 | 0.00 | 0.21 | 0.21 | 100 | 1016.2 |
| 20260901172516 | 81 | 0 | 0.0 | 2.0 | 0.00 | 0.21 | 0.21 | 100 | 1016.3 |
| 20260901172025 | 81 | 0 | 0.0 | 2.0 | 0.00 | 0.21 | 0.21 | 100 | 1016.4 |
| 20260901171539 | 81 | 0 | 0.0 | 0.0 | 0.19 | 0.21 | 0.21 | 100 | 1016.3 |
| 20260901171023 | 81 | 0 | 0.0 | 1.0 | 0.19 | 0.21 | 0.21 | 100 | 1016.4 |
| 20260901170524 | 81 | 0 | 0.0 | 1.0 | 0.19 | 0.21 | 0.21 | 100 | 1016.4 |
| 20260901170041 | 81 | 0 | 0.0 | 0.0 | 0.19 | 0.21 | 0.21 | 100 | 1016.4 |
| 20260901165520 | 81 | 0 | 0.0 | 0.0 | 0.19 | 0.23 | 0.21 | 100 | 1016.4 |
| 20260901165020 | 81 | 0 | 0.0 | 0.0 | 0.19 | 0.23 | 0.21 | 100 | 1016.5 |
| 20260901164540 | 81 | 0 | 0.0 | 0.0 | 0.19 | 0.23 | 0.21 | 99 | 1016.4 |
| 20260901164018 | 81 | 0 | 0.0 | 0.0 | 0.19 | 0.23 | 0.21 | 98 | 1016.5 |
| 20260901163519 | 81 | 0 | 0.0 | 0.0 | 0.19 | 0.23 | 0.21 | 98 | 1016.6 |
| 20260901163039 | 81 | 0 | 0.0 | 3.0 | 0.20 | 0.23 | 0.21 | 96 | 1016.6 |
| 20260901162518 | 82 | 0 | 0.0 | 3.0 | 0.21 | 0.23 | 0.21 | 93 | 1016.6 |
| 20260901162020 | 85 | 239 | 0.0 | 3.0 | 0.20 | 0.22 | 0.20 | 87 | 1016.6 |
| 20260901161544 | 87 | 346 | 0.0 | 3.0 | 0.02 | 0.04 | 0.02 | 82 | 1016.7 |
| 20260901161023 | 88 | 0 | 0.0 | 1.0 | 0.02 | 0.04 | 0.02 | 82 | 1016.7 |
| 20260901160522 | 88 | 0 | 0.0 | 4.0 | 0.02 | 0.04 | 0.02 | 80 | 1016.7 |
| 20260901160051 | 88 | 0 | 0.0 | 4.0 | 0.02 | 0.04 | 0.02 | 86 | 1016.8 |
| 20260901155520 | 88 | 302 | 0.0 | 3.0 | 0.02 | 0.04 | 0.02 | 86 | 1016.8 |
| 20260901155022 | 88 | 0 | 0.0 | 3.0 | 0.02 | 0.04 | 0.02 | 89 | 1016.7 |
| 20260901154539 | 87 | 0 | 0.0 | 1.0 | 0.02 | 0.04 | 0.02 | 89 | 1016.7 |
| 20260901154019 | 86 | 0 | 0.0 | 0.0 | 0.02 | 0.04 | 0.02 | 91 | 1016.8 |
| 20260901153519 | 86 | 0 | 0.0 | 3.0 | 0.02 | 0.04 | 0.02 | 88 | 1016.8 |
| 20260901153041 | 88 | 0 | 0.0 | 3.0 | 0.01 | 0.03 | 0.01 | 83 | 1016.9 |
| 20260901152523 | 89 | 0 | 0.0 | 3.0 | 0.00 | 0.02 | 0.00 | 79 | 1016.8 |
| 20260901152020 | 89 | 0 | 0.0 | 1.0 | 0.00 | 0.02 | 0.00 | 78 | 1016.8 |
| 20260901151535 | 89 | 259 | 0.0 | 1.0 | 0.00 | 0.02 | 0.00 | 80 | 1016.7 |
| 20260901151024 | 88 | 0 | 0.0 | 2.0 | 0.00 | 0.02 | 0.00 | 83 | 1016.8 |
| 20260901150519 | 88 | 0 | 0.0 | 2.0 | 0.00 | 0.02 | 0.00 | 82 | 1016.7 |
| 20260901150039 | 87 | 0 | 0.0 | 2.0 | 0.00 | 0.02 | 0.00 | 83 | 1016.7 |
| 20260901145520 | 86 | 0 | 0.0 | 1.0 | 0.00 | 0.02 | 0.00 | 84 | 1016.7 |
| 20260901145021 | 86 | 0 | 0.0 | 1.0 | 0.00 | 0.02 | 0.00 | 84 | 1016.7 |
| 20260901144540 | 86 | 0 | 0.0 | 1.0 | 0.00 | 0.02 | 0.00 | 86 | 1016.7 |
| 20260901144019 | 86 | 0 | 0.0 | 1.0 | 0.00 | 0.02 | 0.00 | 86 | 1016.7 |
| 20260901143519 | 85 | 0 | 0.0 | 1.0 | 0.00 | 0.02 | 0.00 | 86 | 1016.7 |
| 20260901143036 | 86 | 0 | 0.0 | 2.0 | 0.00 | 0.02 | 0.00 | 87 | 1016.7 |
| 20260901142521 | 85 | 0 | 0.0 | 2.0 | 0.00 | 0.02 | 0.00 | 89 | 1016.6 |
| 20260901142023 | 84 | 20 | 0.0 | 2.0 | 0.00 | 0.02 | 0.00 | 89 | 1016.5 |
| 20260901141537 | 84 | 0 | 0.0 | 0.0 | 0.00 | 0.02 | 0.00 | 91 | 1016.5 |
| 20260901141021 | 84 | 0 | 0.0 | 0.0 | 0.00 | 0.02 | 0.00 | 90 | 1016.5 |
| 20260901140520 | 84 | 0 | 0.0 | 1.0 | 0.00 | 0.02 | 0.00 | 91 | 1016.5 |
| 20260901140040 | 83 | 0 | 0.0 | 1.0 | 0.00 | 0.02 | 0.00 | 92 | 1016.5 |
| 20260901135522 | 83 | 0 | 0.0 | 1.0 | 0.00 | 0.02 | 0.00 | 92 | 1016.5 |
| 20260901135019 | 83 | 0 | 0.0 | 2.0 | 0.00 | 0.02 | 0.00 | 94 | 1016.5 |
| 20260901134558 | 82 | 0 | 0.0 | 2.0 | 0.00 | 0.02 | 0.00 | 94 | 1016.4 |
| 20260901134017 | 82 | 0 | 0.0 | 0.0 | 0.00 | 0.02 | 0.00 | 97 | 1016.4 |
| 20260901133521 | 81 | 0 | 0.0 | 1.0 | 0.00 | 0.02 | 0.00 | 99 | 1016.4 |
| 20260901133035 | 80 | 0 | 0.0 | 1.0 | 0.00 | 0.02 | 0.00 | 100 | 1016.4 |
| 20260901132520 | 80 | 342 | 0.0 | 1.0 | 0.00 | 0.02 | 0.00 | 100 | 1016.4 |
| 20260901132020 | 79 | 0 | 0.0 | 0.0 | 0.00 | 0.02 | 0.00 | 100 | 1016.3 |
| 20260901131536 | 79 | 0 | 0.0 | 0.0 | 0.00 | 0.02 | 0.00 | 100 | 1016.3 |
| 20260901131021 | 78 | 0 | 0.0 | 0.0 | 0.00 | 0.02 | 0.00 | 100 | 1016.3 |
| 20260901130525 | 78 | 0 | 0.0 | 0.0 | 0.00 | 0.02 | 0.00 | 100 | 1016.3 |
| 20260901130039 | 77 | 0 | 0.0 | 0.0 | 0.00 | 0.02 | 0.00 | 100 | 1016.3 |
| 20260901125520 | 76 | 0 | 0.0 | 0.0 | 0.00 | 0.02 | 0.00 | 100 | 1016.2 |
| 20260901125019 | 76 | 0 | 0.0 | 0.0 | 0.00 | 0.02 | 0.00 | 100 | 1016.3 |
| 20260901124545 | 76 | 0 | 0.0 | 0.0 | 0.00 | 0.02 | 0.00 | 100 | 1016.3 |
| 20260901124020 | 76 | 0 | 0.0 | 0.0 | 0.00 | 0.02 | 0.00 | 100 | 1016.4 |
| 20260901123520 | 76 | 0 | 0.0 | 0.0 | 0.00 | 0.02 | 0.00 | 100 | 1016.3 |
| 20260901123036 | 76 | 0 | 0.0 | 0.0 | 0.00 | 0.02 | 0.00 | 100 | 1016.3 |
| 20260901122521 | 75 | 0 | 0.0 | 0.0 | 0.00 | 0.02 | 0.00 | 100 | 1016.3 |
| 20260901122020 | 75 | 0 | 0.0 | 0.0 | 0.00 | 0.02 | 0.00 | 100 | 1016.2 |
| 20260901121536 | 75 | 0 | 0.0 | 0.0 | 0.00 | 0.02 | 0.00 | 100 | 1016.2 |
| 20260901121021 | 74 | 0 | 0.0 | 0.0 | 0.00 | 0.02 | 0.00 | 100 | 1016.1 |
| 20260901120523 | 74 | 0 | 0.0 | 0.0 | 0.00 | 0.02 | 0.00 | 100 | 1016.1 |
| 20260901120055 | 74 | 0 | 0.0 | 0.0 | 0.00 | 0.02 | 0.00 | 100 | 1016.0 |
| 20260901115521 | 74 | 0 | 0.0 | 0.0 | 0.00 | 0.02 | 0.00 | 100 | 1016.0 |
| 20260901115023 | 74 | 0 | 0.0 | 0.0 | 0.00 | 0.02 | 0.00 | 100 | 1015.9 |
| 20260901114540 | 74 | 0 | 0.0 | 0.0 | 0.00 | 0.02 | 0.00 | 100 | 1015.8 |
| 20260901114020 | 74 | 0 | 0.0 | 0.0 | 0.00 | 0.02 | 0.00 | 100 | 1015.8 |
| 20260901113521 | 74 | 0 | 0.0 | 0.0 | 0.00 | 0.02 | 0.00 | 100 | 1015.8 |
| 20260901113103 | 74 | 0 | 0.0 | 0.0 | 0.00 | 0.02 | 0.00 | 100 | 1015.7 |
| 20260901112516 | 73 | 0 | 0.0 | 0.0 | 0.00 | 0.02 | 0.00 | 100 | 1015.7 |
| 20260901112021 | 74 | 0 | 0.0 | 0.0 | 0.00 | 0.02 | 0.00 | 100 | 1015.6 |
| 20260901111540 | 73 | 0 | 0.0 | 0.0 | 0.00 | 0.02 | 0.00 | 100 | 1015.5 |
| 20260901111021 | 73 | 0 | 0.0 | 0.0 | 0.00 | 0.02 | 0.00 | 100 | 1015.4 |
| 20260901110524 | 73 | 0 | 0.0 | 0.0 | 0.00 | 0.02 | 0.00 | 100 | 1015.3 |
| 20260901110058 | 73 | 0 | 0.0 | 0.0 | 0.00 | 0.02 | 0.00 | 100 | 1015.2 |
| 20260901105521 | 73 | 0 | 0.0 | 0.0 | 0.00 | 0.02 | 0.00 | 100 | 1015.2 |
| 20260901105020 | 73 | 0 | 0.0 | 0.0 | 0.00 | 0.02 | 0.00 | 100 | 1015.2 |
| 20260901104544 | 73 | 0 | 0.0 | 0.0 | 0.00 | 0.02 | 0.00 | 100 | 1015.1 |
| 20260901104023 | 73 | 0 | 0.0 | 0.0 | 0.00 | 0.02 | 0.00 | 100 | 1015.1 |
| 20260901103520 | 73 | 0 | 0.0 | 0.0 | 0.00 | 0.02 | 0.00 | 100 | 1015.2 |
| 20260901103039 | 73 | 0 | 0.0 | 0.0 | 0.00 | 0.02 | 0.00 | 100 | 1015.0 |
| 20260901102524 | 73 | 0 | 0.0 | 0.0 | 0.00 | 0.02 | 0.00 | 100 | 1015.1 |
| 20260901102022 | 73 | 0 | 0.0 | 0.0 | 0.00 | 0.02 | 0.00 | 100 | 1015.0 |
| 20260901101602 | 73 | 0 | 0.0 | 0.0 | 0.00 | 0.02 | 0.00 | 100 | 1015.0 |
| 20260901101020 | 73 | 0 | 0.0 | 0.0 | 0.00 | 0.02 | 0.00 | 100 | 1015.0 |
| 20260901100521 | 73 | 0 | 0.0 | 0.0 | 0.00 | 0.02 | 0.00 | 100 | 1015.0 |
| 20260901100054 | 73 | 0 | 0.0 | 0.0 | 0.00 | 0.02 | 0.00 | 100 | 1015.0 |
| 20260901095520 | 73 | 0 | 0.0 | 0.0 | 0.00 | 0.02 | 0.00 | 100 | 1015.0 |
| 20260901095020 | 74 | 0 | 0.0 | 0.0 | 0.00 | 0.02 | 0.00 | 100 | 1014.9 |
| 20260901094541 | 74 | 0 | 0.0 | 0.0 | 0.00 | 0.02 | 0.00 | 100 | 1014.9 |
| 20260901094019 | 74 | 0 | 0.0 | 0.0 | 0.00 | 0.02 | 0.00 | 100 | 1015.0 |
| 20260901093519 | 74 | 0 | 0.0 | 0.0 | 0.00 | 0.02 | 0.00 | 100 | 1014.9 |
| 20260901093041 | 74 | 0 | 0.0 | 0.0 | 0.00 | 0.02 | 0.00 | 100 | 1014.9 |
| 20260901092521 | 74 | 0 | 0.0 | 0.0 | 0.00 | 0.02 | 0.00 | 100 | 1014.8 |
| 20260901092023 | 74 | 0 | 0.0 | 0.0 | 0.00 | 0.02 | 0.00 | 100 | 1014.8 |
| 20260901091541 | 74 | 0 | 0.0 | 0.0 | 0.00 | 0.02 | 0.00 | 100 | 1014.8 |
| 20260901091019 | 74 | 0 | 0.0 | 0.0 | 0.00 | 0.02 | 0.00 | 100 | 1014.7 |
| 20260901090520 | 74 | 0 | 0.0 | 0.0 | 0.00 | 0.02 | 0.00 | 100 | 1014.6 |
| 20260901090040 | 74 | 0 | 0.0 | 0.0 | 0.00 | 0.02 | 0.00 | 100 | 1014.6 |
| 20260901085519 | 74 | 0 | 0.0 | 0.0 | 0.00 | 0.02 | 0.00 | 100 | 1014.7 |
| 20260901085020 | 74 | 0 | 0.0 | 0.0 | 0.00 | 0.02 | 0.00 | 100 | 1014.7 |
| 20260901084544 | 74 | 0 | 0.0 | 0.0 | 0.00 | 0.02 | 0.00 | 100 | 1014.7 |
| 20260901084023 | 75 | 0 | 0.0 | 0.0 | 0.00 | 0.02 | 0.00 | 100 | 1014.8 |
| 20260901083521 | 75 | 0 | 0.0 | 0.0 | 0.00 | 0.02 | 0.00 | 100 | 1014.8 |
| 20260901083041 | 75 | 0 | 0.0 | 0.0 | 0.00 | 0.02 | 0.00 | 100 | 1014.9 |
| 20260901082521 | 75 | 0 | 0.0 | 0.0 | 0.00 | 0.02 | 0.00 | 100 | 1014.8 |
| 20260901082020 | 75 | 0 | 0.0 | 0.0 | 0.00 | 0.02 | 0.00 | 100 | 1014.8 |
| 20260901081543 | 75 | 0 | 0.0 | 0.0 | 0.00 | 0.02 | 0.00 | 100 | 1014.8 |
| 20260901081021 | 75 | 0 | 0.0 | 0.0 | 0.00 | 0.02 | 0.00 | 100 | 1014.8 |
| 20260901080520 | 75 | 0 | 0.0 | 0.0 | 0.00 | 0.02 | 0.00 | 100 | 1014.7 |
| 20260901080044 | 75 | 0 | 0.0 | 0.0 | 0.00 | 0.02 | 0.00 | 100 | 1014.7 |
| 20260901075522 | 75 | 0 | 0.0 | 0.0 | 0.00 | 0.02 | 0.00 | 100 | 1014.8 |
| 20260901075022 | 74 | 0 | 0.0 | 0.0 | 0.00 | 0.02 | 0.00 | 100 | 1014.9 |
| 20260901074539 | 75 | 0 | 0.0 | 0.0 | 0.00 | 0.02 | 0.00 | 100 | 1014.9 |
| 20260901074018 | 75 | 0 | 0.0 | 0.0 | 0.00 | 0.02 | 0.00 | 100 | 1014.9 |
| 20260901073518 | 75 | 0 | 0.0 | 0.0 | 0.00 | 0.02 | 0.00 | 100 | 1014.9 |
| 20260901073040 | 75 | 0 | 0.0 | 0.0 | 0.00 | 0.02 | 0.00 | 100 | 1015.0 |
| 20260901072523 | 75 | 0 | 0.0 | 0.0 | 0.00 | 0.02 | 0.00 | 100 | 1015.1 |
| 20260901072020 | 74 | 0 | 0.0 | 0.0 | 0.00 | 0.02 | 0.00 | 100 | 1015.1 |
| 20260901071536 | 74 | 0 | 0.0 | 0.0 | 0.00 | 0.02 | 0.00 | 100 | 1015.1 |
| 20260901071023 | 74 | 0 | 0.0 | 0.0 | 0.00 | 0.02 | 0.00 | 100 | 1015.1 |
| 20260901070521 | 74 | 0 | 0.0 | 0.0 | 0.00 | 0.02 | 0.00 | 100 | 1015.1 |
| 20260901070044 | 74 | 0 | 0.0 | 0.0 | 0.00 | 0.02 | 0.00 | 100 | 1015.1 |
| 20260901065519 | 74 | 0 | 0.0 | 0.0 | 0.00 | 0.02 | 0.00 | 100 | 1015.1 |
| 20260901065019 | 74 | 0 | 0.0 | 0.0 | 0.00 | 0.02 | 0.00 | 100 | 1015.1 |
| 20260901064539 | 74 | 0 | 0.0 | 0.0 | 0.00 | 0.02 | 0.00 | 100 | 1015.2 |
| 20260901064018 | 74 | 0 | 0.0 | 0.0 | 0.00 | 0.02 | 0.00 | 100 | 1015.2 |
| 20260901063519 | 74 | 0 | 0.0 | 0.0 | 0.00 | 0.02 | 0.00 | 100 | 1015.2 |
| 20260901063045 | 74 | 0 | 0.0 | 0.0 | 0.00 | 0.02 | 0.00 | 100 | 1015.3 |
| 20260901062526 | 74 | 0 | 0.0 | 0.0 | 0.00 | 0.02 | 0.00 | 100 | 1015.3 |
| 20260901062031 | 74 | 0 | 0.0 | 0.0 | 0.00 | 0.02 | 0.00 | 100 | 1015.4 |
| 20260901061537 | 74 | 0 | 0.0 | 0.0 | 0.00 | 0.02 | 0.00 | 100 | 1015.5 |
| 20260901061020 | 74 | 0 | 0.0 | 0.0 | 0.00 | 0.02 | 0.00 | 100 | 1015.5 |
| 20260901060521 | 74 | 0 | 0.0 | 0.0 | 0.00 | 0.02 | 0.00 | 100 | 1015.4 |
| 20260901060035 | 74 | 0 | 0.0 | 0.0 | 0.00 | 0.02 | 0.00 | 100 | 1015.6 |
| 20260901055520 | 74 | 0 | 0.0 | 0.0 | 0.00 | 0.02 | 0.00 | 100 | 1015.7 |
| 20260901055027 | 74 | 0 | 0.0 | 0.0 | 0.00 | 0.02 | 0.00 | 100 | 1015.8 |
| 20260901054540 | 75 | 0 | 0.0 | 0.0 | 0.00 | 0.02 | 0.00 | 100 | 1015.8 |
| 20260901054024 | 75 | 0 | 0.0 | 0.0 | 0.00 | 0.02 | 0.00 | 100 | 1015.9 |
| 20260901053520 | 75 | 0 | 0.0 | 0.0 | 0.00 | 0.02 | 0.00 | 100 | 1015.9 |
| 20260901053102 | 75 | 0 | 0.0 | 0.0 | 0.00 | 0.02 | 0.00 | 100 | 1015.9 |
| 20260901052521 | 75 | 0 | 0.0 | 0.0 | 0.00 | 0.02 | 0.00 | 100 | 1015.9 |
| 20260901052021 | 75 | 0 | 0.0 | 0.0 | 0.00 | 0.02 | 0.00 | 100 | 1016.0 |
| 20260901051535 | 75 | 0 | 0.0 | 0.0 | 0.00 | 0.02 | 0.00 | 100 | 1016.0 |
| 20260901051018 | 75 | 0 | 0.0 | 0.0 | 0.00 | 0.02 | 0.00 | 100 | 1016.1 |
| 20260901050520 | 75 | 0 | 0.0 | 0.0 | 0.00 | 0.02 | 0.00 | 100 | 1016.1 |
| 20260901050038 | 75 | 0 | 0.0 | 0.0 | 0.00 | 0.02 | 0.00 | 100 | 1016.2 |
| 20260901045541 | 75 | 0 | 0.0 | 0.0 | 0.00 | 0.02 | 0.00 | 100 | 1016.2 |
| 20260901045019 | 75 | 0 | 0.0 | 0.0 | 0.00 | 0.02 | 0.00 | 100 | 1016.3 |
| 20260901044602 | 75 | 0 | 0.0 | 0.0 | 0.00 | 0.02 | 0.00 | 100 | 1016.4 |
| 20260901044018 | 75 | 0 | 0.0 | 0.0 | 0.00 | 0.02 | 0.00 | 100 | 1016.5 |
| 20260901043517 | 75 | 0 | 0.0 | 0.0 | 0.00 | 0.02 | 0.00 | 100 | 1016.5 |
| 20260901043041 | 75 | 0 | 0.0 | 0.0 | 0.00 | 0.02 | 0.00 | 100 | 1016.4 |
| 20260901042532 | 75 | 0 | 0.0 | 0.0 | 0.00 | 0.02 | 0.00 | 100 | 1016.3 |
| 20260901042029 | 75 | 0 | 0.0 | 0.0 | 0.00 | 0.02 | 0.00 | 100 | 1016.3 |
| 20260901041537 | 75 | 0 | 0.0 | 0.0 | 0.00 | 0.02 | 0.00 | 100 | 1016.3 |
| 20260901041019 | 76 | 0 | 0.0 | 0.0 | 0.00 | 0.02 | 0.00 | 100 | 1016.4 |
| 20260901040520 | 76 | 0 | 0.0 | 0.0 | 0.00 | 0.02 | 0.00 | 100 | 1016.5 |
| 20260901040037 | 76 | 0 | 0.0 | 0.0 | 0.00 | 0.02 | 0.00 | 100 | 1016.6 |
| 20260901035522 | 76 | 0 | 0.0 | 0.0 | 0.00 | 0.02 | 0.02 | 100 | 1016.5 |
| 20260901035017 | 76 | 0 | 0.0 | 0.0 | 0.00 | 0.02 | 0.02 | 100 | 1016.5 |
| 20260901034549 | 76 | 0 | 0.0 | 0.0 | 0.00 | 0.02 | 0.02 | 100 | 1016.5 |
| 20260901034024 | 76 | 0 | 0.0 | 0.0 | 0.00 | 0.02 | 0.02 | 100 | 1016.5 |
| 20260901033521 | 76 | 0 | 0.0 | 0.0 | 0.00 | 0.02 | 0.02 | 100 | 1016.5 |
| 20260901033042 | 76 | 0 | 0.0 | 0.0 | 0.00 | 0.02 | 0.02 | 100 | 1016.5 |
| 20260901032517 | 76 | 0 | 0.0 | 0.0 | 0.00 | 0.02 | 0.02 | 100 | 1016.5 |
| 20260901032018 | 76 | 0 | 0.0 | 0.0 | 0.00 | 0.02 | 0.02 | 100 | 1016.5 |
| 20260901031546 | 76 | 0 | 0.0 | 0.0 | 0.00 | 0.02 | 0.02 | 100 | 1016.6 |
| 20260901031018 | 76 | 0 | 0.0 | 0.0 | 0.00 | 0.02 | 0.02 | 100 | 1016.6 |
| 20260901030521 | 76 | 0 | 0.0 | 0.0 | 0.00 | 0.02 | 0.02 | 100 | 1016.6 |
| 20260901030037 | 76 | 0 | 0.0 | 0.0 | 0.00 | 0.02 | 0.02 | 100 | 1016.6 |
| 20260901025522 | 77 | 0 | 0.0 | 0.0 | 0.00 | 0.02 | 0.02 | 100 | 1016.6 |
| 20260901025022 | 77 | 0 | 0.0 | 0.0 | 0.00 | 0.02 | 0.02 | 100 | 1016.6 |
| 20260901024538 | 77 | 0 | 0.0 | 0.0 | 0.00 | 0.02 | 0.02 | 100 | 1016.6 |
| 20260901024020 | 77 | 0 | 0.0 | 0.0 | 0.00 | 0.02 | 0.02 | 100 | 1016.6 |
| 20260901023520 | 77 | 0 | 0.0 | 0.0 | 0.00 | 0.02 | 0.02 | 100 | 1016.6 |
| 20260901023040 | 77 | 0 | 0.0 | 0.0 | 0.00 | 0.02 | 0.02 | 100 | 1016.6 |
| 20260901022518 | 77 | 0 | 0.0 | 0.0 | 0.00 | 0.02 | 0.02 | 100 | 1016.5 |
| 20260901022021 | 77 | 0 | 0.0 | 0.0 | 0.00 | 0.02 | 0.02 | 100 | 1016.5 |
| 20260901021541 | 77 | 0 | 0.0 | 0.0 | 0.00 | 0.02 | 0.02 | 100 | 1016.5 |
| 20260901021019 | 77 | 0 | 0.0 | 0.0 | 0.00 | 0.02 | 0.02 | 100 | 1016.5 |
| 20260901020522 | 77 | 0 | 0.0 | 0.0 | 0.00 | 0.02 | 0.02 | 100 | 1016.5 |
| 20260901020059 | 77 | 0 | 0.0 | 0.0 | 0.00 | 0.02 | 0.02 | 100 | 1016.5 |
| 20260901015520 | 77 | 0 | 0.0 | 0.0 | 0.00 | 0.02 | 0.02 | 100 | 1016.4 |
| 20260901015020 | 77 | 0 | 0.0 | 0.0 | 0.00 | 0.02 | 0.02 | 100 | 1016.4 |
| 20260901014539 | 77 | 0 | 0.0 | 0.0 | 0.00 | 0.02 | 0.02 | 100 | 1016.3 |
| 20260901014021 | 77 | 0 | 0.0 | 0.0 | 0.00 | 0.02 | 0.02 | 100 | 1016.3 |
| 20260901013520 | 78 | 0 | 0.0 | 0.0 | 0.00 | 0.02 | 0.02 | 100 | 1016.2 |
| 20260901013042 | 78 | 0 | 0.0 | 0.0 | 0.00 | 0.02 | 0.02 | 100 | 1016.2 |
| 20260901012519 | 78 | 0 | 0.0 | 0.0 | 0.00 | 0.02 | 0.02 | 100 | 1016.2 |
| 20260901012020 | 78 | 0 | 0.0 | 0.0 | 0.00 | 0.02 | 0.02 | 100 | 1016.2 |
| 20260901011541 | 78 | 0 | 0.0 | 0.0 | 0.00 | 0.02 | 0.02 | 100 | 1016.1 |
| 20260901011019 | 78 | 0 | 0.0 | 0.0 | 0.00 | 0.02 | 0.02 | 100 | 1016.0 |
| 20260901010522 | 78 | 0 | 0.0 | 0.0 | 0.00 | 0.02 | 0.02 | 100 | 1015.9 |
| 20260901010042 | 78 | 0 | 0.0 | 0.0 | 0.00 | 0.02 | 0.02 | 100 | 1015.8 |
| 20260901005520 | 78 | 0 | 0.0 | 0.0 | 0.00 | 0.02 | 0.02 | 100 | 1015.8 |
| 20260901005022 | 78 | 0 | 0.0 | 0.0 | 0.00 | 0.02 | 0.02 | 99 | 1015.7 |
| 20260901004542 | 79 | 0 | 0.0 | 0.0 | 0.00 | 0.02 | 0.02 | 99 | 1015.7 |
| 20260901004021 | 79 | 0 | 0.0 | 0.0 | 0.00 | 0.02 | 0.02 | 99 | 1015.7 |
| 20260901003519 | 79 | 0 | 0.0 | 0.0 | 0.00 | 0.02 | 0.02 | 99 | 1015.6 |
| 20260901003046 | 79 | 0 | 0.0 | 0.0 | 0.00 | 0.02 | 0.02 | 98 | 1015.5 |
| 20260901002520 | 79 | 0 | 0.0 | 0.0 | 0.00 | 0.02 | 0.02 | 98 | 1015.4 |
| 20260901002020 | 79 | 0 | 0.0 | 0.0 | 0.00 | 0.02 | 0.02 | 98 | 1015.5 |
| 20260901001550 | 80 | 0 | 0.0 | 0.0 | 0.00 | 0.02 | 0.02 | 98 | 1015.5 |
| 20260901001019 | 80 | 0 | 0.0 | 0.0 | 0.00 | 0.02 | 0.02 | 98 | 1015.5 |
| 20260901000520 | 80 | 0 | 0.0 | 0.0 | 0.00 | 0.02 | 0.02 | 98 | 1015.5 |
| 20260901000045 | 80 | 0 | 0.0 | 0.0 | 0.00 | 0.02 | 0.02 | 97 | 1015.4 |
| 20260831235519 | 80 | 0 | 0.0 | 0.0 | 0.00 | 0.02 | 0.02 | 97 | 1015.4 |
| 20260831235016 | 81 | 0 | 0.0 | 0.0 | 0.00 | 0.02 | 0.02 | 97 | 1015.4 |
| 20260831234555 | 81 | 0 | 0.0 | 0.0 | 0.00 | 0.02 | 0.02 | 97 | 1015.4 |
| 20260831234020 | 81 | 0 | 0.0 | 0.0 | 0.00 | 0.02 | 0.02 | 96 | 1015.4 |
| 20260831233523 | 81 | 0 | 0.0 | 0.0 | 0.00 | 0.02 | 0.02 | 96 | 1015.4 |
| 20260831233046 | 81 | 0 | 0.0 | 0.0 | 0.00 | 0.02 | 0.02 | 96 | 1015.4 |
| 20260831232519 | 81 | 0 | 0.0 | 1.0 | 0.00 | 0.02 | 0.02 | 96 | 1015.3 |
| 20260831232019 | 81 | 0 | 0.0 | 1.0 | 0.00 | 0.02 | 0.02 | 96 | 1015.3 |
| 20260831231538 | 81 | 0 | 0.0 | 1.0 | 0.00 | 0.02 | 0.02 | 96 | 1015.5 |
| 20260831231019 | 81 | 289 | 0.0 | 1.0 | 0.00 | 0.02 | 0.02 | 96 | 1015.4 |
| 20260831230518 | 81 | 0 | 0.0 | 2.0 | 0.00 | 0.02 | 0.02 | 97 | 1015.4 |
| 20260831230041 | 80 | 18 | 0.0 | 2.0 | 0.00 | 0.02 | 0.02 | 97 | 1015.5 |
| 20260831225518 | 80 | 0 | 0.0 | 0.0 | 0.00 | 0.02 | 0.02 | 97 | 1015.5 |